Regional Weather Roundup
Issued by NWS Goodland, KS

Home | Current Version | Previous Version | Text Only | Print | Product List | Glossary On
Versions: 1 2 3 4 5 6 7 8 9 10 11 12 13 14 15 16 17 18 19 20 21 22 23 24 25 26 27 28 29 30 31 32 33 34 35 36 37 38 39 40 41 42 43 44 45 46 47 48 49 50
000
ASUS43 KGLD 241108
RWRGLD

GOODLAND FORECAST AREA HOURLY WEATHER ROUNDUP
NATIONAL WEATHER SERVICE GOODLAND KS
500 AM MDT FRI OCT 24 2014

...OFFICIAL OBSERVATIONS...

CITY           SKY/WX    TMP DP  RH WIND       PRES   REMARKS
GOODLAND KS    PTCLDY    53  44  71 W13       30.07R
HILL CITY KS   CLEAR     53  51  93 W6        30.00F FOG
IMPERIAL NEB   PTCLDY    50  38  63 W10       30.00F
MCCOOK NEB     MOCLDY    51  49  92 W8        30.00S
AKRON CO       CLOUDY    54  34  46 SW10      30.09S
BURLINGTON CO  PTCLDY    51  39  63 W10       30.09R
LIMON CO       MOCLDY    40  34  79 N5        30.16R
$$

...UNOFFICIAL OBSERVATIONS...

CITY           SKY/WX    TMP DP  RH WIND       PRES   REMARKS
SHARON SPRINGS   N/A     51  49  92 W7          N/A
KIT CARSON CO    N/A     42  40  91 CALM        N/A
YUMA CO          N/A     49  36  60 W6          N/A
$$



USA.gov is the U.S. government's official web portal to all federal, state and local government web resources and services.